Time,TemperatureF,DewpointF,PressureIn,WindDirection,WindDirectionDegrees,WindSpeedMPH,WindSpeedGustMPH,Humidity,HourlyPrecipIn,Conditions,Clouds,dailyrainin,SoftwareType,DateUTC
2013-05-14 00:03:00,43.0,39.0,30.02,WNW,291,0.0,-999.0,86,-99.99,,,-99.99,,2013-05-14 04:03:00,
2013-05-14 00:13:00,43.0,39.0,30.02,WNW,291,0.0,-999.0,86,-99.99,,,-99.99,,2013-05-14 04:13:00,
2013-05-14 00:23:00,43.0,39.0,30.01,WNW,291,0.0,-999.0,87,-99.99,,,-99.99,,2013-05-14 04:23:00,
2013-05-14 00:32:00,42.0,39.0,30.02,WNW,291,0.0,-999.0,88,-99.99,,,-99.99,,2013-05-14 04:32:00,
2013-05-14 00:43:00,42.0,39.0,30.02,WNW,291,0.0,-999.0,88,-99.99,,,-99.99,,2013-05-14 04:43:00,
2013-05-14 00:53:00,42.0,39.0,30.01,WNW,291,0.0,-999.0,89,-99.99,,,-99.99,,2013-05-14 04:53:00,
2013-05-14 01:02:00,41.0,38.0,30.00,WNW,292,0.0,-999.0,89,-99.99,,,-99.99,,2013-05-14 05:02:00,
2013-05-14 01:12:00,41.0,38.0,30.00,WNW,292,0.0,-999.0,89,-99.99,,,-99.99,,2013-05-14 05:12:00,
2013-05-14 01:22:00,42.0,39.0,30.00,NW,311,0.0,-999.0,90,-99.99,,,-99.99,,2013-05-14 05:22:00,
2013-05-14 01:32:00,42.0,39.0,30.00,North,349,1.0,-999.0,90,-99.99,,,-99.99,,2013-05-14 05:32:00,
2013-05-14 01:42:00,42.0,39.0,30.00,NW,315,2.0,-999.0,89,-99.99,,,-99.99,,2013-05-14 05:42:00,
2013-05-14 01:52:00,42.0,39.0,30.00,NW,315,2.0,-999.0,89,-99.99,,,-99.99,,2013-05-14 05:52:00,
2013-05-14 02:01:00,43.0,38.0,30.00,NW,318,4.0,-999.0,83,-99.99,,,-99.99,,2013-05-14 06:01:00,
2013-05-14 02:12:00,43.0,38.0,30.00,NW,318,4.0,-999.0,83,-99.99,,,-99.99,,2013-05-14 06:12:00,
2013-05-14 02:22:00,44.0,37.0,30.01,NNW,328,3.0,-999.0,77,-99.99,,,-99.99,,2013-05-14 06:22:00,
2013-05-14 02:32:00,44.0,37.0,30.01,NNW,335,2.0,-999.0,75,-99.99,,,-99.99,,2013-05-14 06:32:00,
2013-05-14 02:42:00,44.0,37.0,30.01,NNW,335,2.0,-999.0,75,-99.99,,,-99.99,,2013-05-14 06:42:00,
2013-05-14 02:52:00,44.0,36.0,30.00,North,360,3.0,-999.0,73,-99.99,,,-99.99,,2013-05-14 06:52:00,
2013-05-14 03:02:00,44.0,36.0,30.01,NW,323,1.0,-999.0,72,-99.99,,,-99.99,,2013-05-14 07:02:00,
2013-05-14 03:11:00,44.0,36.0,30.01,NW,323,1.0,-999.0,72,-99.99,,,-99.99,,2013-05-14 07:11:00,
2013-05-14 03:21:00,44.0,35.0,30.02,NW,325,1.0,-999.0,71,-99.99,,,-99.99,,2013-05-14 07:21:00,
2013-05-14 03:32:00,43.0,34.0,30.02,NNW,330,1.0,-999.0,71,-99.99,,,-99.99,,2013-05-14 07:32:00,
2013-05-14 03:42:00,43.0,34.0,30.01,NNW,340,1.0,-999.0,71,-99.99,,,-99.99,,2013-05-14 07:42:00,
2013-05-14 03:52:00,43.0,34.0,30.01,NNW,340,1.0,-999.0,71,-99.99,,,-99.99,,2013-05-14 07:52:00,
2013-05-14 04:02:00,43.0,34.0,30.01,NNW,330,1.0,-999.0,71,-99.99,,,-99.99,,2013-05-14 08:02:00,
2013-05-14 04:11:00,43.0,34.0,30.01,NNW,330,1.0,-999.0,71,-99.99,,,-99.99,,2013-05-14 08:11:00,
2013-05-14 04:21:00,43.0,35.0,30.01,NNW,336,0.0,-999.0,72,-99.99,,,-99.99,,2013-05-14 08:21:00,
2013-05-14 04:32:00,44.0,35.0,30.01,NNW,343,2.0,-999.0,70,-99.99,,,-99.99,,2013-05-14 08:32:00,
2013-05-14 04:42:00,43.0,34.0,30.01,North,352,2.0,-999.0,70,-99.99,,,-99.99,,2013-05-14 08:42:00,
2013-05-14 04:52:00,43.0,34.0,30.01,North,352,2.0,-999.0,70,-99.99,,,-99.99,,2013-05-14 08:52:00,
2013-05-14 05:02:00,43.0,34.0,30.01,North,352,2.0,-999.0,70,-99.99,,,-99.99,,2013-05-14 09:02:00,
2013-05-14 05:11:00,43.0,34.0,30.01,North,352,2.0,-999.0,70,-99.99,,,-99.99,,2013-05-14 09:11:00,
2013-05-14 05:22:00,43.0,34.0,30.01,North,352,2.0,-999.0,70,-99.99,,,-99.99,,2013-05-14 09:22:00,
2013-05-14 16:33:00,49.0,40.0,29.97,SSE,147,0.0,-999.0,72,-99.99,,,-99.99,,2013-05-14 20:33:00,
2013-05-14 16:44:00,49.0,40.0,29.97,SSE,147,0.0,-999.0,72,-99.99,,,-99.99,,2013-05-14 20:44:00,
2013-05-14 16:52:00,48.0,40.0,29.97,SSE,162,0.0,-999.0,73,-99.99,,,-99.99,,2013-05-14 20:52:00,
2013-05-14 17:03:00,49.0,37.0,29.97,West,274,0.0,-999.0,64,-99.99,,,-99.99,,2013-05-14 21:03:00,
2013-05-14 17:12:00,49.0,37.0,29.97,West,274,0.0,-999.0,64,-99.99,,,-99.99,,2013-05-14 21:12:00,
2013-05-14 17:23:00,49.0,37.0,29.96,West,281,0.0,-999.0,62,-99.99,,,-99.99,,2013-05-14 21:23:00,
2013-05-14 17:33:00,49.0,38.0,29.96,WNW,284,0.0,-999.0,65,-99.99,,,-99.99,,2013-05-14 21:33:00,
2013-05-14 17:43:00,49.0,38.0,29.96,WNW,284,0.0,-999.0,65,-99.99,,,-99.99,,2013-05-14 21:43:00,
2013-05-14 17:53:00,49.0,39.0,29.96,WNW,291,0.0,-999.0,67,-99.99,,,-99.99,,2013-05-14 21:53:00,
2013-05-14 18:03:00,49.0,39.0,29.95,WNW,291,0.0,-999.0,69,-99.99,,,-99.99,,2013-05-14 22:03:00,
2013-05-14 18:13:00,49.0,39.0,29.95,WNW,291,0.0,-999.0,69,-99.99,,,-99.99,,2013-05-14 22:13:00,
2013-05-14 18:24:00,49.0,39.0,29.95,WNW,291,0.0,-999.0,69,-99.99,,,-99.99,,2013-05-14 22:24:00,
2013-05-14 18:34:00,49.0,39.0,29.95,WNW,291,0.0,-999.0,69,-99.99,,,-99.99,,2013-05-14 22:34:00,
2013-05-14 18:45:00,49.0,39.0,29.95,WNW,291,0.0,-999.0,69,-99.99,,,-99.99,,2013-05-14 22:45:00,
2013-05-14 18:54:00,49.0,39.0,29.95,NW,320,0.0,-999.0,69,-99.99,,,-99.99,,2013-05-14 22:54:00,
2013-05-14 19:03:00,49.0,39.0,29.96,NW,320,0.0,-999.0,69,-99.99,,,-99.99,,2013-05-14 23:03:00,
2013-05-14 19:12:00,49.0,39.0,29.96,NW,320,0.0,-999.0,69,-99.99,,,-99.99,,2013-05-14 23:12:00,
2013-05-14 19:22:00,49.0,40.0,29.97,NW,320,0.0,-999.0,70,-99.99,,,-99.99,,2013-05-14 23:22:00,
2013-05-14 19:32:00,49.0,39.0,29.98,NW,320,0.0,-999.0,69,-99.99,,,-99.99,,2013-05-14 23:32:00,
2013-05-14 19:44:00,49.0,39.0,29.98,NW,320,0.0,-999.0,69,-99.99,,,-99.99,,2013-05-14 23:44:00,
2013-05-14 19:53:00,48.0,39.0,29.97,NW,320,0.0,-999.0,71,-99.99,,,-99.99,,2013-05-14 23:53:00,
2013-05-14 20:02:00,47.0,37.0,29.97,NW,320,0.0,-999.0,69,-99.99,,,-99.99,,2013-05-15 00:02:00,
2013-05-14 20:11:00,47.0,37.0,29.97,NW,320,0.0,-999.0,69,-99.99,,,-99.99,,2013-05-15 00:11:00,
2013-05-14 20:21:00,47.0,37.0,29.97,NW,320,0.0,-999.0,68,-99.99,,,-99.99,,2013-05-15 00:21:00,
2013-05-14 20:32:00,47.0,37.0,29.98,NW,320,0.0,-999.0,67,-99.99,,,-99.99,,2013-05-15 00:32:00,
2013-05-14 20:42:00,47.0,37.0,29.98,NW,320,0.0,-999.0,67,-99.99,,,-99.99,,2013-05-15 00:42:00,
2013-05-14 20:52:00,47.0,37.0,29.98,NW,320,0.0,-999.0,67,-99.99,,,-99.99,,2013-05-15 00:52:00,
2013-05-14 21:01:00,47.0,37.0,29.98,NW,319,1.0,-999.0,67,-99.99,,,-99.99,,2013-05-15 01:01:00,
2013-05-14 21:11:00,47.0,37.0,29.98,NW,319,1.0,-999.0,67,-99.99,,,-99.99,,2013-05-15 01:11:00,
2013-05-14 21:22:00,47.0,35.0,29.98,NW,306,1.0,-999.0,63,-99.99,,,-99.99,,2013-05-15 01:22:00,
2013-05-14 21:32:00,47.0,34.0,29.99,NNW,329,1.0,-999.0,61,-99.99,,,-99.99,,2013-05-15 01:32:00,
2013-05-14 21:42:00,47.0,34.0,29.99,NNW,329,1.0,-999.0,61,-99.99,,,-99.99,,2013-05-15 01:42:00,
2013-05-14 21:52:00,47.0,34.0,30.00,NNW,328,1.0,-999.0,60,-99.99,,,-99.99,,2013-05-15 01:52:00,
2013-05-14 22:02:00,47.0,34.0,30.00,NW,320,0.0,-999.0,61,-99.99,,,-99.99,,2013-05-15 02:02:00,
2013-05-14 22:11:00,47.0,34.0,30.00,NW,320,0.0,-999.0,61,-99.99,,,-99.99,,2013-05-15 02:11:00,
2013-05-14 22:22:00,46.0,34.0,30.01,NW,323,0.0,-999.0,62,-99.99,,,-99.99,,2013-05-15 02:22:00,
2013-05-14 22:32:00,46.0,34.0,30.00,NNW,343,0.0,-999.0,63,-99.99,,,-99.99,,2013-05-15 02:32:00,
2013-05-14 22:42:00,46.0,34.0,30.00,NNW,343,0.0,-999.0,63,-99.99,,,-99.99,,2013-05-15 02:42:00,
2013-05-14 22:52:00,45.0,34.0,30.00,NNW,342,0.0,-999.0,64,-99.99,,,-99.99,,2013-05-15 02:52:00,
2013-05-14 23:01:00,44.0,33.0,30.00,NNW,339,0.0,-999.0,65,-99.99,,,-99.99,,2013-05-15 03:01:00,
2013-05-14 23:13:00,44.0,33.0,30.00,NNW,339,0.0,-999.0,65,-99.99,,,-99.99,,2013-05-15 03:13:00,
2013-05-14 23:22:00,44.0,33.0,30.00,NNW,337,0.0,-999.0,65,-99.99,,,-99.99,,2013-05-15 03:22:00,
2013-05-14 23:33:00,43.0,33.0,30.00,NNW,337,0.0,-999.0,68,-99.99,,,-99.99,,2013-05-15 03:33:00,
2013-05-14 23:44:00,42.0,33.0,30.00,NNW,337,0.0,-999.0,70,-99.99,,,-99.99,,2013-05-15 03:44:00,
2013-05-14 23:54:00,42.0,33.0,30.00,NNW,337,0.0,-999.0,70,-99.99,,,-99.99,,2013-05-15 03:54:00,